Hourly Weather Roundup
Issued by NWS Central Illinois

Home | Current Version | Previous Version | Text Only | Print | Product List | Glossary On
Versions: 1 2 3 4 5 6 7 8 9 10 11 12 13 14 15 16 17 18 19 20 21 22 23 24 25 26 27 28 29 30 31 32 33 34 35 36 37 38 39 40 41 42 43 44 45 46 47 48 49 50
000
NZUS43 KILX 282010
HWRILX

AREA WEATHER ROUNDUP
NATIONAL WEATHER SERVICE, LINCOLN IL
200 PM CST FRI NOV 28 2014


CITY           SKY/WX    TMP DP  RH WIND       PRES   REMARKS
BLOOMINGTON    PTSUNNY   38  31  76 S23       30.00F WCI  27
CHAMPAIGN      MOSUNNY   38  30  73 S20G28    30.05F WCI  28
DECATUR        MOSUNNY   38  30  73 S15       30.03F WCI  29
FLORA          SUNNY     40  33  75 S17       30.10F WCI  31
GALESBURG      MOSUNNY   35  29  79 SE12      29.92F WCI  27
JACKSONVILLE   SUNNY     43  33  69 S14G21    29.96F
LACON          CLOUDY    37  28  71 S14G20    29.96F WCI  28
LAWRENCEVILLE  SUNNY     41  30  65 S16G25    30.16F WCI  33
LITCHFIELD     SUNNY     38  31  74 S23       30.00F WCI  28
$$


CITY           SKY/WX    TMP DP  RH WIND       PRES   REMARKS
LINCOLN        MOSUNNY   37  31  77 S17       30.01F WCI  28
MACOMB         MOSUNNY   37  31  81 SE14      29.96F WCI  28
MATTOON        MOSUNNY   37  28  70 S16G29    30.04F WCI  28
MT CARMEL AP   SUNNY     43  32  65 S16       30.14F
OLNEY-NOBLE AP SUNNY     37  32  81 S15G24    30.11F WCI  28
PARIS          MOSUNNY   37  31  78 S17G23    30.09F WCI  28
PEORIA         MOSUNNY   38  29  70 S17       29.97F WCI  28
PONTIAC        PTSUNNY   37  31  78 S18G25    30.01F WCI  27
RANTOUL        MOSUNNY   39  31  72 S24       30.05F WCI  28
ROBINSON       MOSUNNY   40  31  68 S15       30.14F WCI  32
SPRINGFIELD    SUNNY     39  30  70 S21G33    29.99F WCI  29
TAYLORVILLE    SUNNY     36  30  80 S21G31    30.01F WCI  24
$$

...REGIONAL REPORTS...


CITY           SKY/WX    TMP DP  RH WIND       PRES   REMARKS
CHICAGO O`HARE CLOUDY    30  20  66 S18       30.02F WCI  18
KANKAKEE       CLOUDY    32  25  76 SE14G20   30.07F WCI  22
MOLINE         CLOUDY    34  25  69 S9        29.92F WCI  27
MOUNT VERNON   SUNNY     45  34  65 S17G23    30.09F
PITTSFIELD     SUNNY     47  35  63 S10       29.94F
QUINCY         MOSUNNY   47  31  53 S12       29.90F
ROCKFORD       CLOUDY    29  22  75 SE10      30.00F WCI  20
$$


CITY           SKY/WX    TMP DP  RH WIND       PRES   REMARKS
BURLINGTON     MOSUNNY   39  30  70 S13       29.90F WCI  31
CEDAR RAPIDS   PTSUNNY   30  24  78 SE7       29.89F WCI  23
DES MOINES     MOSUNNY   41  28  60 S7        29.80F
KIRKSVILLE     MOSUNNY   49  33  54 SW9       29.87F
OTTUMWA        PTSUNNY   39  29  67 S13       29.84F WCI  31
ST LOUIS       MOSUNNY   51  32  48 S14G20    29.99F
$$


CITY           SKY/WX    TMP DP  RH WIND       PRES   REMARKS
TERRE HAUTE    MOSUNNY   38  27  64 S15       30.12F WCI  29
EVANSVILLE     SUNNY     42  28  57 S13G21    30.18F
INDIANAPOLIS   PTSUNNY   32  19  58 SE15      30.14F WCI  22
LAFAYETTE      CLOUDY    32  22  66 SE12G20   30.11F WCI  23
MADISON        CLOUDY    25  16  68 S10       29.97F WCI  15
MILWAUKEE      PTSUNNY   29  21  72 S15       29.99F WCI  18
$$




USA.gov is the U.S. government's official web portal to all federal, state and local government web resources and services.